1485579600.85,2234,10.63,73832.0,-2.83,-31.95,-32.29,0,*6A
1485579602.08,2235,10.56,73828.8,-2.83,-32.07,-32.39,0,*62
1485579603.32,2236,10.63,73832.3,-2.85,-32.13,-32.51,0,*6C
1485579604.54,2237,10.56,73832.5,-2.83,-32.13,-32.45,0,*6E
1485579605.79,2238,10.56,73828.5,-2.83,-31.95,-32.29,0,*66
1485579607.07,2239,10.56,73830.0,-2.85,-31.95,-32.29,0,*61
1485579608.32,2240,10.63,73832.3,-2.83,-31.95,-32.29,0,*69
1485579609.61,2241,10.63,73834.0,-2.85,-32.07,-32.45,0,*6C
1485579610.83,2242,10.63,73832.8,-2.83,-31.91,-32.23,0,*65
1485579612.06,2243,10.63,73832.0,-2.83,-31.95,-32.23,0,*60
1485579613.32,2244,10.56,73832.0,-2.85,-31.95,-32.23,0,*61
1485579614.57,2245,10.63,73832.3,-2.83,-31.95,-32.29,0,*6C
1485579615.8,2246,10.56,73830.5,-2.83,-31.91,-32.23,0,*61
1485579617.02,2247,10.56,73828.0,-2.83,-31.91,-32.23,0,*60
1485579618.27,2248,10.56,73834.3,-2.85,-31.91,-32.13,0,*6A
1485579619.55,2249,10.56,73828.3,-2.85,-31.95,-32.29,0,*66
1485579620.81,2250,10.56,73832.8,-2.83,-31.95,-32.29,0,*68
1485579622.04,2251,10.63,73834.8,-2.85,-31.79,-32.23,0,*67
1485579623.26,2252,10.56,73832.5,-2.83,-31.91,-32.13,0,*67
1485579624.49,2253,10.56,73832.8,-2.85,-31.79,-32.13,0,*66
1485579625.74,2254,10.63,73834.3,-2.85,-31.91,-32.13,0,*67
1485579627.0,2255,10.56,73828.3,-2.85,-31.91,-32.13,0,*66
1485579628.22,2256,10.56,73830.0,-2.83,-31.91,-32.23,0,*60
1485579629.45,2257,10.63,73832.5,-2.83,-31.95,-32.23,0,*65
1485579630.71,2258,10.56,73832.5,-2.85,-31.95,-32.13,0,*6F
1485579631.93,2259,10.56,73832.8,-2.83,-31.91,-32.13,0,*6C
1485579633.16,2260,10.63,73834.8,-2.83,-31.95,-32.39,0,*6A
1485579634.39,2261,10.63,73832.0,-2.83,-31.91,-32.23,0,*64
1485579635.61,2262,10.56,73832.0,-2.83,-31.95,-32.23,0,*63
1485579636.84,2263,10.56,73828.5,-2.83,-31.95,-32.23,0,*62
1485579638.07,2264,10.56,73828.5,-2.83,-32.13,-32.45,0,*68
1485579639.32,2265,10.56,73832.8,-2.85,-31.91,-32.13,0,*65
1485579640.54,2266,10.56,73830.5,-2.83,-31.91,-32.13,0,*60
1485579641.77,2267,10.56,73828.5,-2.83,-31.95,-32.13,0,*65
1485579643.03,2268,10.56,73832.3,-2.85,-31.79,-32.07,0,*6B
1485579644.32,2269,10.56,73832.5,-2.85,-31.73,-31.95,0,*68
1485579645.55,2270,10.63,73832.0,-2.83,-32.07,-32.39,0,*63
1485579646.77,2271,10.56,73830.5,-2.83,-31.91,-32.13,0,*66
1485579648.02,2272,10.56,73830.0,-2.83,-31.95,-32.29,0,*68
1485579649.28,2273,10.63,73834.0,-2.83,-31.73,-31.95,0,*65
1485579650.54,2274,10.56,73830.8,-2.85,-31.95,-32.23,0,*62
1485579651.74,2275,10.63,73832.8,-2.83,-32.13,-32.51,0,*6D
1485579652.97,2276,10.56,73830.0,-2.83,-32.07,-32.39,0,*65
1485579654.17,2277,10.56,73830.8,-2.83,-31.79,-32.13,0,*66
1485579655.43,2278,10.56,73832.3,-2.85,-31.91,-32.13,0,*69
1485579656.7,2279,10.63,73832.0,-2.81,-31.91,-32.19,0,*66
1485579657.93,2280,10.56,73828.8,-2.83,-31.91,-32.23,0,*6B
1485579659.21,2281,10.56,73830.8,-2.85,-32.07,-32.29,0,*6A
1485579660.46,2282,10.56,73828.5,-2.83,-31.95,-32.29,0,*67
1485579661.72,2283,10.56,73832.0,-2.85,-31.95,-32.13,0,*69
1485579662.94,2284,10.56,73830.8,-2.83,-31.91,-32.13,0,*6C
1485579664.22,2285,10.56,73832.3,-2.85,-31.91,-32.29,0,*62
1485579665.44,2286,10.56,73828.8,-2.81,-31.67,-32.01,0,*66
1485579666.69,2287,10.63,73834.0,-2.83,-31.73,-32.07,0,*66
1485579667.94,2288,10.56,73828.8,-2.81,-31.73,-32.01,0,*6D
1485579669.17,2289,10.56,73830.8,-2.83,-31.91,-32.13,0,*61
1485579670.42,2290,10.63,73834.8,-2.83,-31.91,-32.07,0,*6C
1485579671.64,2291,10.56,73834.5,-2.83,-31.91,-32.13,0,*68
1485579672.9,2292,10.56,73830.5,-2.83,-31.95,-32.29,0,*66
1485579674.09,2293,10.56,73830.0,-2.83,-31.79,-32.13,0,*6C
1485579675.33,2294,10.56,73828.3,-2.83,-31.79,-32.07,0,*6E
1485579676.56,2295,10.63,73834.0,-2.83,-31.95,-32.39,0,*60
1485579677.81,2296,10.63,73832.8,-2.83,-31.73,-31.95,0,*6E
1485579679.04,2297,10.56,73828.8,-2.83,-31.79,-31.95,0,*65
1485579680.27,2298,10.56,73830.0,-2.83,-31.79,-32.07,0,*62
1485579681.5,2299,10.63,73832.0,-2.83,-31.95,-32.13,0,*64
1485579682.72,2300,10.63,73832.3,-2.81,-31.67,-32.01,0,*69
1485579683.96,2301,10.56,73832.8,-2.81,-31.51,-32.01,0,*6D
1485579685.24,2302,10.63,73832.8,-2.81,-31.73,-32.19,0,*67
1485579686.52,2303,10.56,73832.5,-2.81,-31.91,-32.19,0,*6A
1485579687.74,2304,10.56,73832.3,-2.81,-31.67,-32.01,0,*6D
1485579688.96,2305,10.56,73834.3,-2.81,-31.67,-32.01,0,*6C
1485579690.24,2306,10.56,73832.8,-2.81,-31.73,-32.07,0,*6C
1485579691.52,2307,10.56,73834.3,-2.81,-31.73,-32.07,0,*6D
1485579692.78,2308,10.56,73828.0,-2.79,-31.85,-32.19,0,*63
1485579694.06,2309,10.63,73834.0,-2.81,-31.73,-32.19,0,*6C
1485579695.29,2310,10.56,73828.0,-2.79,-31.79,-32.19,0,*69
1485579696.54,2311,10.56,73830.8,-2.81,-31.73,-32.01,0,*6C
1485579697.76,2312,10.63,73832.0,-2.79,-31.67,-31.85,0,*62
1485579699.04,2313,10.56,73828.5,-2.81,-31.57,-31.91,0,*62
1485579700.28,2314,10.56,73834.0,-2.81,-31.67,-31.85,0,*63
1485579701.54,2315,10.56,73832.3,-2.79,-31.61,-31.85,0,*63
1485579702.81,2316,10.56,73834.5,-2.81,-31.39,-31.73,0,*63
1485579704.09,2317,10.56,73830.0,-2.81,-31.73,-32.07,0,*6C
1485579705.29,2318,10.63,73832.5,-2.79,-31.45,-31.67,0,*64
1485579706.52,2319,10.56,73832.0,-2.79,-31.51,-31.79,0,*6F
1485579707.78,2320,10.56,73834.3,-2.79,-31.61,-31.95,0,*64
1485579709.03,2321,10.63,73832.5,-2.79,-31.51,-31.85,0,*67
1485579710.31,2322,10.56,73828.3,-2.77,-31.51,-31.95,0,*6B
1485579711.53,2323,10.56,73834.0,-2.77,-31.67,-32.01,0,*61
1485579712.76,2324,10.63,73834.0,-2.79,-31.61,-32.01,0,*6E
1485579714.04,2325,10.56,73830.5,-2.77,-31.61,-31.95,0,*6F
1485579715.3,2326,10.56,73832.8,-2.79,-31.61,-31.85,0,*63
1485579716.5,2327,10.56,73832.0,-2.79,-31.67,-32.01,0,*6B
1485579717.72,2328,10.63,73832.0,-2.79,-31.67,-31.85,0,*6B
1485579719.0,2329,10.63,73834.0,-2.81,-31.57,-31.91,0,*6B
1485579720.22,2330,10.63,73834.0,-2.79,-31.51,-31.79,0,*64
1485579721.48,2331,10.56,73830.5,-2.79,-31.51,-31.95,0,*67
1485579722.73,2332,10.63,73834.5,-2.79,-31.61,-31.85,0,*66
1485579723.96,2333,10.56,73832.5,-2.79,-31.61,-32.01,0,*68
1485579725.19,2334,10.56,73832.8,-2.79,-31.67,-31.95,0,*67
1485579726.47,2335,10.56,73832.5,-2.77,-31.61,-31.85,0,*6F
1485579727.67,2336,10.56,73832.8,-2.79,-31.67,-32.01,0,*6B
1485579728.92,2337,10.56,73832.8,-2.77,-31.67,-31.95,0,*6A
1485579730.18,2338,10.56,73834.3,-2.77,-31.85,-32.13,0,*64
1485579731.4,2339,10.56,73828.3,-2.77,-31.79,-32.01,0,*65
1485579732.68,2340,10.56,73830.8,-2.77,-31.51,-31.85,0,*6E
1485579733.96,2341,10.63,73832.0,-2.75,-31.61,-31.91,0,*6B
1485579735.22,2342,10.63,73834.0,-2.75,-31.57,-31.79,0,*6B
1485579736.48,2343,10.63,73834.5,-2.77,-31.45,-31.61,0,*62
1485579737.73,2344,10.56,73832.0,-2.77,-31.45,-31.85,0,*6F
1485579738.98,2345,10.63,73834.0,-2.75,-31.29,-31.57,0,*69
1485579740.22,2346,10.56,73834.5,-2.75,-31.45,-31.79,0,*6C
1485579741.47,2347,10.63,73834.8,-2.77,-31.85,-32.13,0,*6C
1485579742.7,2348,10.56,73832.3,-2.77,-31.79,-32.01,0,*63
1485579743.92,2349,10.63,73834.0,-2.77,-31.67,-32.13,0,*6E
1485579745.2,2350,10.63,73834.0,-2.77,-31.95,-32.29,0,*62
1485579746.45,2351,10.56,73832.8,-2.75,-31.73,-32.13,0,*60
1485579747.73,2352,10.56,73828.8,-2.75,-31.39,-31.61,0,*6B
1485579748.96,2353,10.63,73832.8,-2.77,-31.45,-31.79,0,*6A
1485579750.25,2354,10.63,73832.0,-2.75,-31.57,-31.85,0,*6F
1485579751.47,2355,10.56,73830.5,-2.77,-31.67,-32.01,0,*60
1485579752.73,2356,10.63,73834.8,-2.75,-31.79,-31.95,0,*60
1485579753.99,2357,10.56,73832.0,-2.75,-31.57,-31.79,0,*6F
1485579755.24,2358,10.56,73830.0,-2.77,-31.61,-31.79,0,*67
1485579756.5,2359,10.56,73828.5,-2.75,-31.45,-31.73,0,*68
1485579757.78,2360,10.56,73828.8,-2.77,-31.51,-31.95,0,*6D
1485579759.01,2361,10.56,73828.5,-2.75,-31.45,-31.79,0,*69
1485579760.24,2362,10.56,73830.0,-2.75,-31.45,-31.79,0,*6A
1485579761.51,2363,10.56,73832.0,-2.75,-31.45,-31.61,0,*62
1485579762.79,2364,10.56,73832.0,-2.75,-31.61,-31.95,0,*68
1485579764.08,2365,10.56,73830.0,-2.75,-31.73,-31.91,0,*6E
1485579765.36,2366,10.63,73832.3,-2.75,-31.39,-31.61,0,*6C
1485579766.6,2367,10.56,73830.3,-2.75,-31.45,-31.79,0,*6F
1485579767.85,2368,10.56,73834.3,-2.75,-31.39,-31.79,0,*6B
1485579769.13,2369,10.56,73832.3,-2.75,-31.61,-31.91,0,*61
1485579770.36,2370,10.63,73832.5,-2.77,-31.67,-32.01,0,*67
1485579771.58,2371,10.56,73828.0,-2.73,-31.57,-31.79,0,*6D
1485579772.82,2372,10.56,73828.8,-2.75,-31.45,-31.79,0,*6B
1485579774.1,2373,10.63,73832.8,-2.75,-31.61,-31.95,0,*6E
1485579775.39,2374,10.56,73832.8,-2.75,-31.61,-31.91,0,*6D
1485579776.64,2375,10.63,73832.5,-2.73,-31.61,-31.91,0,*6A
1485579777.9,2376,10.56,73830.8,-2.75,-31.61,-31.79,0,*69
1485579779.19,2377,10.56,73828.3,-2.75,-31.61,-31.91,0,*6E
1485579780.47,2378,10.56,73832.0,-2.75,-31.57,-31.73,0,*68
1485579781.73,2379,10.63,73834.0,-2.73,-31.61,-31.95,0,*62
1485579782.98,2380,10.63,73836.5,-2.73,-31.61,-31.91,0,*60
1485579784.21,2381,10.56,73832.5,-2.73,-31.39,-31.79,0,*6A
1485579785.46,2382,10.56,73828.3,-2.75,-31.57,-31.79,0,*67
1485579786.7,2383,10.56,73830.5,-2.75,-31.45,-31.79,0,*65
1485579787.95,2384,10.56,73834.5,-2.73,-31.61,-31.91,0,*64
1485579789.18,2385,10.63,73834.5,-2.73,-31.45,-31.73,0,*6F
1485579790.41,2386,10.56,73828.3,-2.73,-31.45,-31.73,0,*6C
1485579791.65,2387,10.63,73834.8,-2.73,-31.39,-31.73,0,*66
1485579792.88,2388,10.63,73832.3,-2.73,-31.39,-31.79,0,*63
1485579794.14,2389,10.63,73834.8,-2.73,-31.61,-31.95,0,*6D
1485579795.36,2390,10.63,73834.8,-2.73,-31.57,-31.79,0,*62
1485579796.59,2391,10.56,73832.3,-2.73,-31.57,-31.79,0,*63
1485579797.85,2392,10.63,73834.8,-2.73,-31.57,-31.91,0,*66
1485579799.1,2393,10.56,73828.5,-2.73,-31.61,-31.91,0,*62
1485579800.33,2394,10.63,73834.8,-2.73,-31.57,-31.79,0,*66
1485579801.56,2395,10.63,73834.0,-2.73,-31.45,-31.61,0,*6D
1485579802.81,2396,10.63,73832.3,-2.69,-31.39,-31.73,0,*6D
1485579804.04,2397,10.63,73834.5,-2.73,-31.57,-31.79,0,*65
1485579805.27,2398,10.56,73832.0,-2.69,-31.67,-31.85,0,*61
1485579806.53,2399,10.56,73828.0,-2.69,-31.57,-31.91,0,*66
1485579807.79,2400,10.56,73832.5,-2.73,-31.73,-31.95,0,*68
1485579809.02,2401,10.56,73832.3,-2.73,-31.61,-31.79,0,*68
1485579810.22,2402,10.63,73834.8,-2.69,-31.33,-31.67,0,*68
1485579811.45,2403,10.56,73828.8,-2.69,-31.39,-31.67,0,*63
1485579812.71,2404,10.56,73832.0,-2.73,-31.73,-31.95,0,*6C
1485579813.96,2405,10.63,73832.8,-2.73,-31.61,-31.91,0,*6A
1485579815.22,2406,10.56,73832.8,-2.73,-31.73,-31.95,0,*6E
1485579816.47,2407,10.63,73836.5,-2.67,-31.51,-31.67,0,*67
1485579817.72,2408,10.56,73834.3,-2.73,-31.57,-31.91,0,*62
1485579818.99,2409,10.63,73834.0,-2.69,-31.73,-31.91,0,*6E
1485579820.24,2410,10.63,73834.8,-2.69,-31.39,-31.73,0,*64
1485579821.49,2411,10.63,73834.5,-2.69,-31.51,-31.85,0,*62
1485579822.75,2412,10.63,73834.0,-2.73,-31.61,-31.91,0,*6C
1485579823.97,2413,10.56,73834.3,-2.73,-31.51,-31.79,0,*68
1485579825.2,2414,10.63,73834.8,-2.69,-31.33,-31.57,0,*6C
1485579826.45,2415,10.63,73834.3,-2.69,-31.51,-31.73,0,*6F
1485579827.73,2416,10.63,73834.3,-2.67,-31.57,-31.85,0,*6D
1485579829.0,2417,10.56,73830.3,-2.67,-31.51,-31.73,0,*63
1485579830.23,2418,10.63,73832.8,-2.67,-31.33,-31.67,0,*6D
1485579831.51,2419,10.63,73834.8,-2.67,-31.57,-31.91,0,*67
1485579832.78,2420,10.56,73832.5,-2.67,-31.51,-31.73,0,*67
1485579834.06,2421,10.63,73832.3,-2.67,-31.51,-31.85,0,*6F
1485579835.33,2422,10.63,73832.8,-2.67,-31.51,-31.85,0,*6C
1485579836.61,2423,10.56,73832.3,-2.67,-31.51,-31.91,0,*68
1485579837.89,2424,10.63,73832.5,-2.67,-31.57,-31.85,0,*6C
1485579839.16,2425,10.63,73832.8,-2.67,-31.51,-31.73,0,*62
1485579840.42,2426,10.56,73832.3,-2.69,-31.51,-31.73,0,*6F
1485579841.62,2427,10.56,73828.5,-2.65,-31.45,-31.67,0,*62
1485579842.89,2428,10.63,73832.3,-2.67,-31.51,-31.73,0,*6F
1485579844.11,2429,10.63,73834.8,-2.65,-31.67,-31.85,0,*60
1485579845.4,2430,10.56,73832.0,-2.67,-31.73,-32.07,0,*66
1485579846.68,2431,10.63,73834.0,-2.67,-31.73,-32.07,0,*67
1485579847.91,2432,10.63,73834.8,-2.67,-31.67,-32.01,0,*67
1485579849.16,2433,10.56,73832.3,-2.67,-31.67,-31.91,0,*6C
1485579850.43,2434,10.56,73834.3,-2.67,-31.51,-31.73,0,*62
1485579851.71,2435,10.56,73832.5,-2.67,-31.57,-31.91,0,*69
1485579852.99,2436,10.63,73834.8,-2.67,-31.57,-31.91,0,*6A
1485579854.26,2437,10.63,73834.0,-2.67,-31.51,-31.73,0,*61
1485579855.52,2438,10.56,73832.3,-2.69,-31.51,-31.73,0,*60
1485579856.8,2439,10.56,73830.8,-2.67,-31.57,-31.85,0,*60
1485579858.08,2440,10.63,73834.3,-2.67,-31.57,-31.85,0,*6E
1485579859.28,2441,10.63,73834.5,-2.65,-31.45,-31.67,0,*62
1485579860.55,2442,10.63,73834.5,-2.67,-31.51,-31.73,0,*63
1485579861.83,2443,10.63,73834.8,-2.67,-31.51,-31.85,0,*6B
1485579863.1,2444,10.56,73830.5,-2.67,-31.57,-31.73,0,*63
1485579864.35,2445,10.56,73832.0,-2.67,-31.67,-31.91,0,*6D
1485579865.6,2446,10.56,73830.8,-2.67,-31.51,-31.67,0,*62
1485579866.88,2447,10.63,73834.8,-2.67,-31.57,-31.73,0,*60
1485579868.16,2448,10.56,73828.3,-2.67,-31.57,-31.85,0,*66
1485579869.44,2449,10.63,73834.8,-2.67,-31.57,-31.85,0,*67
1485579870.64,2450,10.63,73832.8,-2.65,-31.45,-31.67,0,*62
1485579871.91,2451,10.63,73834.5,-2.67,-31.51,-31.73,0,*61
1485579873.19,2452,10.63,73834.3,-2.67,-31.57,-31.85,0,*6D
1485579874.44,2453,10.56,73832.8,-2.67,-31.67,-31.85,0,*6F
1485579875.72,2454,10.56,73832.3,-2.67,-31.51,-31.73,0,*64
1485579876.97,2455,10.56,73832.3,-2.69,-31.51,-31.85,0,*62
1485579878.22,2456,10.63,73834.8,-2.65,-31.61,-31.85,0,*6E
1485579879.46,2457,10.63,73832.3,-2.65,-31.45,-31.61,0,*63
1485579880.72,2458,10.56,73834.0,-2.63,-31.45,-31.61,0,*6A
1485579881.96,2459,10.63,73834.8,-2.67,-31.51,-31.67,0,*6C
1485579883.19,2460,10.56,73832.0,-2.65,-31.67,-31.85,0,*6D
1485579884.41,2461,10.63,73834.0,-2.65,-31.51,-31.79,0,*6A
1485579885.63,2462,10.56,73834.3,-2.65,-31.51,-31.79,0,*69
1485579886.85,2463,10.63,73834.5,-2.65,-31.51,-31.67,0,*67
1485579888.06,2464,10.63,73834.3,-2.65,-31.45,-31.79,0,*6A
1485579889.28,2465,10.56,73832.5,-2.65,-31.51,-31.79,0,*6E
1485579890.51,2466,10.63,73832.3,-2.63,-31.45,-31.67,0,*61
1485579891.73,2467,10.63,73832.8,-2.65,-31.51,-31.67,0,*63
1485579892.99,2468,10.63,73834.0,-2.67,-31.73,-32.01,0,*6D
1485579894.24,2469,10.63,73832.8,-2.65,-31.51,-31.85,0,*61
1485579895.46,2470,10.63,73832.0,-2.65,-31.51,-31.79,0,*6A
1485579896.68,2471,10.56,73830.8,-2.65,-31.51,-31.79,0,*6B
1485579897.96,2472,10.63,73834.5,-2.67,-31.51,-31.85,0,*69
1485579899.21,2473,10.56,73830.8,-2.65,-31.61,-31.85,0,*69
1485579900.46,2474,10.63,73834.0,-2.65,-31.61,-31.85,0,*6E
1485579901.69,2475,10.56,73828.0,-2.65,-31.61,-31.79,0,*6C
1485579902.92,2476,10.56,73832.5,-2.65,-31.67,-31.85,0,*6A
1485579904.14,2477,10.63,73832.8,-2.65,-31.67,-31.95,0,*6A
1485579905.4,2478,10.63,73832.5,-2.65,-31.61,-31.85,0,*62
1485579906.65,2479,10.63,73832.3,-2.65,-31.61,-31.95,0,*62
1485579907.88,2480,10.56,73832.3,-2.65,-31.61,-31.79,0,*66
1485579909.11,2481,10.56,73830.5,-2.65,-31.61,-31.79,0,*67
1485579910.33,2482,10.56,73828.3,-2.65,-31.67,-31.85,0,*61
1485579911.58,2483,10.56,73830.8,-2.67,-31.67,-31.85,0,*62
1485579912.83,2484,10.63,73832.0,-2.65,-31.51,-31.85,0,*62
1485579914.05,2485,10.56,73832.0,-2.65,-31.51,-31.79,0,*60
1485579915.33,2486,10.63,73834.8,-2.63,-31.61,-31.85,0,*65
1485579916.56,2487,10.63,73834.0,-2.65,-31.51,-31.79,0,*62
1485579917.78,2488,10.63,73834.3,-2.65,-31.51,-31.67,0,*62
1485579919.04,2489,10.56,73830.5,-2.65,-31.61,-31.95,0,*6D
1485579920.26,2490,10.63,73834.5,-2.65,-31.61,-32.01,0,*6B
1485579921.47,2491,10.56,73830.5,-2.65,-31.79,-32.13,0,*60
1485579922.71,2492,10.56,73832.8,-2.65,-31.51,-31.85,0,*65
1485579923.97,2493,10.63,73832.5,-2.65,-31.61,-31.85,0,*67
1485579925.19,2494,10.63,73832.5,-2.65,-31.67,-31.85,0,*66
1485579926.41,2495,10.63,73832.8,-2.65,-31.51,-31.79,0,*61
1485579927.65,2496,10.56,73830.3,-2.65,-31.45,-31.61,0,*6E
1485579928.89,2497,10.56,73828.0,-2.63,-31.51,-31.67,0,*6A
1485579930.15,2498,10.63,73836.8,-2.63,-31.51,-31.79,0,*6A
1485579931.4,2499,10.63,73832.3,-2.63,-31.61,-31.79,0,*68
1485579932.62,2500,10.63,73834.0,-2.63,-31.33,-31.67,0,*61
1485579933.85,2501,10.63,73834.0,-2.61,-31.45,-31.73,0,*66
1485579935.13,2502,10.63,73836.8,-2.63,-31.61,-31.85,0,*68
1485579936.36,2503,10.63,73834.3,-2.63,-31.45,-31.79,0,*6C
1485579937.61,2504,10.63,73832.0,-2.63,-31.51,-31.79,0,*6E
1485579938.87,2505,10.63,73832.3,-2.63,-31.67,-31.95,0,*68
1485579940.12,2506,10.63,73830.8,-2.61,-31.57,-31.91,0,*6E
1485579941.4,2507,10.63,73834.0,-2.63,-31.61,-31.85,0,*6D
1485579942.65,2508,10.63,73834.8,-2.63,-31.67,-31.85,0,*64
1485579943.85,2509,10.63,73832.0,-2.65,-31.67,-32.01,0,*6C
1485579945.11,2510,10.63,73834.3,-2.63,-31.67,-31.95,0,*6C
1485579946.35,2511,10.56,73830.3,-2.63,-31.67,-31.85,0,*6C
1485579947.63,2512,10.63,73834.8,-2.63,-31.61,-31.85,0,*69
1485579948.86,2513,10.63,73832.3,-2.63,-31.67,-31.79,0,*6D
1485579950.06,2514,10.63,73834.5,-2.65,-31.45,-31.67,0,*63
1485579951.32,2515,10.63,73832.5,-2.65,-31.61,-31.85,0,*68
1485579952.57,2516,10.63,73834.8,-2.63,-31.67,-31.95,0,*6A
1485579953.86,2517,10.63,73834.3,-2.63,-31.61,-31.95,0,*6D
1485579955.11,2518,10.63,73834.8,-2.63,-31.51,-31.79,0,*63
1485579956.36,2519,10.63,73832.3,-2.63,-31.51,-31.79,0,*62
1485579957.61,2520,10.63,73834.0,-2.63,-31.67,-31.85,0,*6E
1485579958.86,2521,10.63,73834.5,-2.63,-31.51,-31.79,0,*69
1485579960.11,2522,10.63,73832.0,-2.63,-31.61,-31.79,0,*69
1485579961.34,2523,10.63,73832.0,-2.65,-31.45,-31.61,0,*61
1485579962.6,2524,10.63,73832.5,-2.63,-31.67,-31.95,0,*6B
1485579963.85,2525,10.63,73832.5,-2.63,-31.61,-32.01,0,*62
1485579965.13,2526,10.63,73836.3,-2.63,-31.51,-31.61,0,*67
1485579966.38,2527,10.63,73834.5,-2.63,-31.67,-31.85,0,*69
1485579967.61,2528,10.63,73832.8,-2.63,-31.67,-32.01,0,*69
1485579968.89,2529,10.63,73834.0,-2.63,-31.61,-31.85,0,*61
1485579970.17,2530,10.63,73834.3,-2.63,-31.61,-31.95,0,*68
1485579971.4,2531,10.63,73834.3,-2.63,-31.45,-31.67,0,*62
1485579972.68,2532,10.63,73832.0,-2.63,-31.61,-31.85,0,*6B
1485579973.94,2533,10.63,73832.3,-2.63,-31.67,-31.95,0,*6D
1485579975.19,2534,10.63,73832.0,-2.61,-31.61,-31.95,0,*6E
1485579976.48,2535,10.63,73832.8,-2.63,-31.61,-31.85,0,*6C
1485579977.72,2536,10.63,73832.3,-2.63,-31.51,-31.67,0,*60
1485579978.98,2537,10.56,73830.8,-2.63,-31.67,-31.95,0,*69
1485579980.26,2538,10.56,73832.5,-2.63,-31.61,-31.95,0,*60
1485579981.52,2539,10.56,73832.0,-2.63,-31.67,-31.95,0,*67
1485579982.77,2540,10.63,73834.5,-2.63,-31.51,-31.67,0,*61
1485579984.02,2541,10.63,73836.8,-2.61,-31.39,-31.61,0,*6A
1485579985.27,2542,10.63,73832.8,-2.61,-31.57,-31.91,0,*6E
1485579986.55,2543,10.63,73834.5,-2.63,-31.61,-31.85,0,*6D
1485579987.81,2544,10.56,73832.5,-2.63,-31.61,-31.79,0,*69
1485579989.09,2545,10.63,73834.0,-2.63,-31.61,-31.85,0,*6B
1485579990.37,2546,10.63,73834.3,-2.63,-31.61,-31.85,0,*68
1485579991.6,2547,10.63,73834.0,-2.61,-31.45,-31.61,0,*67
1485579992.83,2548,10.63,73834.0,-2.63,-31.45,-31.79,0,*63
1485579994.06,2549,10.63,73832.3,-2.61,-31.57,-31.79,0,*63
1485579995.29,2550,10.63,73834.8,-2.63,-31.33,-31.67,0,*64
1485579996.52,2551,10.56,73832.5,-2.63,-31.45,-31.67,0,*64
1485579997.74,2552,10.56,73830.5,-2.61,-31.51,-31.79,0,*6F
1485579998.99,2553,10.63,73836.3,-2.63,-31.51,-31.79,0,*6C
1485580000.25,2554,10.63,73832.3,-2.61,-31.61,-31.91,0,*6C
1485580001.53,2555,10.63,73834.5,-2.63,-31.61,-31.95,0,*6B
1485580002.78,2556,10.63,73832.0,-2.61,-31.57,-31.91,0,*6B
1485580004.03,2557,10.63,73832.0,-2.63,-31.51,-31.67,0,*67
1485580005.28,2558,10.63,73832.0,-2.63,-31.51,-31.79,0,*67
1485580006.54,2559,10.63,73832.8,-2.61,-31.61,-31.95,0,*65
1485580007.77,2560,10.63,73834.0,-2.61,-31.61,-31.79,0,*6D
1485580009.02,2561,10.63,73834.0,-2.61,-31.39,-31.61,0,*68
1485580010.27,2562,10.63,73834.0,-2.61,-31.61,-31.73,0,*65
1485580011.53,2563,10.63,73834.3,-2.61,-31.73,-31.91,0,*6B
1485580012.78,2564,10.56,73832.0,-2.61,-31.57,-31.73,0,*66
1485580014.01,2565,10.63,73836.5,-2.61,-31.57,-31.79,0,*6D
1485580015.23,2566,10.63,73834.8,-2.61,-31.57,-31.79,0,*6E
1485580016.49,2567,10.63,73834.3,-2.61,-31.61,-31.91,0,*6C
1485580017.75,2568,10.63,73834.0,-2.61,-31.61,-31.95,0,*67
1485580018.97,2569,10.63,73834.5,-2.61,-31.61,-31.79,0,*64
1485580020.18,2570,10.63,73834.3,-2.61,-31.45,-31.79,0,*6A
1485580021.44,2571,10.56,73832.0,-2.61,-31.61,-31.95,0,*6F
1485580022.66,2572,10.63,73832.5,-2.61,-31.57,-31.79,0,*6B
1485580023.89,2573,10.63,73834.8,-2.61,-31.57,-31.79,0,*6A
1485580025.12,2574,10.63,73834.5,-2.61,-31.45,-31.61,0,*67
1485580026.35,2575,10.63,73832.3,-2.61,-31.57,-31.79,0,*6C
1485580027.58,2576,10.63,73836.0,-2.61,-31.61,-31.79,0,*6A
1485580028.83,2577,10.63,73832.0,-2.61,-31.57,-31.73,0,*64
1485580030.11,2578,10.63,73834.8,-2.59,-31.57,-31.91,0,*6C
1485580031.37,2579,10.63,73834.5,-2.61,-31.61,-31.95,0,*67
1485580032.6,2580,10.63,73832.3,-2.61,-31.61,-31.79,0,*63
1485580033.85,2581,10.63,73834.3,-2.61,-31.39,-31.61,0,*66
1485580035.13,2582,10.63,73834.3,-2.59,-31.61,-31.91,0,*6C
1485580036.39,2583,10.63,73834.0,-2.61,-31.57,-31.91,0,*63
1485580037.64,2584,10.63,73832.3,-2.59,-31.57,-31.79,0,*69
1485580038.92,2585,10.63,73832.3,-2.59,-31.61,-31.91,0,*6B
1485580040.2,2586,10.63,73834.0,-2.59,-31.57,-31.73,0,*61
1485580041.48,2587,10.63,73834.8,-2.59,-31.61,-31.91,0,*69
1485580042.73,2588,10.63,73832.8,-2.59,-31.45,-31.73,0,*6C
1485580044.0,2589,10.63,73832.0,-2.59,-31.39,-31.57,0,*60
1485580045.23,2590,10.63,73830.0,-2.61,-31.45,-31.73,0,*6E
1485580046.49,2591,10.63,73832.3,-2.61,-31.61,-31.95,0,*61
1485580047.77,2592,10.63,73832.3,-2.59,-31.61,-32.07,0,*61
1485580049.0,2593,10.63,73832.5,-2.61,-31.57,-31.79,0,*64
1485580050.23,2594,10.63,73830.5,-2.61,-31.45,-31.61,0,*69
1485580051.46,2595,10.63,73834.3,-2.61,-31.57,-31.79,0,*62
1485580052.66,2596,10.63,73834.0,-2.61,-31.67,-32.01,0,*6E
1485580053.89,2597,10.63,73834.8,-2.63,-31.79,-32.01,0,*62
1485580055.11,2598,10.63,73834.3,-2.61,-31.57,-31.79,0,*6F
1485580056.34,2599,10.63,73834.0,-2.61,-31.45,-31.73,0,*67
1485580057.59,2600,10.63,73834.0,-2.61,-31.23,-31.57,0,*62
1485580058.84,2601,10.63,73832.5,-2.59,-31.29,-31.57,0,*62
1485580060.12,2602,10.56,73828.3,-2.59,-31.23,-31.57,0,*6B
1485580061.31,2603,10.63,73834.5,-2.57,-31.33,-31.67,0,*66
1485580062.6,2604,10.63,73834.0,-2.59,-31.57,-31.61,0,*6B
1485580063.87,2605,10.63,73834.5,-2.59,-31.39,-31.57,0,*67
1485580065.12,2606,10.63,73836.0,-2.59,-31.45,-31.73,0,*69
1485580066.37,2607,10.63,73830.8,-2.57,-31.51,-31.85,0,*6A
1485580067.62,2608,10.63,73830.8,-2.59,-31.57,-31.79,0,*6E
1485580068.88,2609,10.63,73834.3,-2.59,-31.23,-31.45,0,*63
1485580070.16,2610,10.63,73830.5,-2.59,-31.23,-31.57,0,*68
1485580071.4,2611,10.63,73830.0,-2.59,-31.29,-31.45,0,*60
1485580072.63,2612,10.63,73828.5,-2.59,-31.29,-31.45,0,*63
1485580073.88,2613,10.63,73832.0,-2.59,-31.45,-31.73,0,*6D
1485580075.1,2614,10.63,73832.5,-2.57,-31.39,-31.67,0,*6A
1485580076.32,2615,10.63,73834.0,-2.57,-31.39,-31.67,0,*6B
1485580077.52,2616,10.63,73832.5,-2.57,-31.33,-31.67,0,*62
1485580078.79,2617,10.63,73834.3,-2.59,-31.39,-31.61,0,*61
1485580080.07,2618,10.63,73832.5,-2.59,-31.57,-31.73,0,*65
1485580081.29,2619,10.63,73832.0,-2.57,-31.17,-31.39,0,*60
1485580082.51,2620,10.63,73830.0,-2.57,-31.39,-31.67,0,*6D
1485580083.76,2621,10.63,73834.5,-2.57,-31.57,-31.73,0,*61
1485580085.04,2622,10.63,73834.3,-2.59,-31.39,-31.61,0,*67
1485580086.26,2623,10.63,73832.0,-2.57,-31.39,-31.67,0,*6E
1485580087.51,2624,10.63,73830.8,-2.57,-31.23,-31.39,0,*69
1485580088.73,2625,10.63,73834.8,-2.57,-31.33,-31.57,0,*61
1485580089.98,2626,10.56,73830.8,-2.57,-31.23,-31.39,0,*6B
1485580091.27,2627,10.63,73834.0,-2.59,-31.11,-31.39,0,*65
1485580092.52,2628,10.63,73832.5,-2.57,-31.23,-31.51,0,*6B
1485580093.74,2629,10.63,73832.8,-2.57,-31.33,-31.57,0,*6D
1485580094.96,2630,10.63,73830.3,-2.57,-31.05,-31.39,0,*68
1485580096.21,2631,10.63,73836.8,-2.57,-31.23,-31.51,0,*63
1485580097.41,2632,10.63,73832.3,-2.57,-31.33,-31.67,0,*64
1485580098.66,2633,10.63,73832.3,-2.57,-31.23,-31.51,0,*61
1485580099.86,2634,10.63,73834.0,-2.57,-31.17,-31.33,0,*65
1485580101.08,2635,10.63,73832.3,-2.55,-31.17,-31.33,0,*66
1485580102.34,2636,10.63,73832.3,-2.55,-31.11,-31.45,0,*62
1485580103.57,2637,10.63,73832.5,-2.55,-31.17,-31.33,0,*64
1485580104.77,2638,10.63,73832.8,-2.53,-31.17,-31.45,0,*6C
1485580106.03,2639,10.63,73834.3,-2.55,-31.11,-31.33,0,*6C
1485580107.26,2640,10.63,73834.5,-2.53,-31.11,-31.29,0,*6F